Flag for Germany Weather past 2 weeks in Bensheim, Hesse, Germany

Now
79 °F

Passing clouds.


Feels Like: 80 °F
Forecast: 59 / 77 °F
Wind: 6 mph from Northeast

Location: Baden Wurttemberg - Neuostheim

Current Time: Sep 18, 2014 at 4:17:51 PM

Latest Report: Sep 18, 2014 at 3:50 PM


Visibility: N/A

Pressure: 29.86 "Hg

Humidity: 51%

Dew point: 59 °F

Location of BensheimLocation

Historic Weather in Bensheim — Graph

°F

Bensheim temperature yesterday

Maximum temperature yesterday: 79 °F (at 3:20 PM)
Minimum temperature yesterday: 52 °F (at 6:50 AM)
Average temperature yesterday: 68 °F

Past Weeks' High & Low Weather Summary

 TemperatureHumidityPressure
High82 °F (Sep 6, 5:20 PM)100% (Sep 5, 6:20 AM)30.18 "Hg (Sep 5, 6:20 AM)
Low50 °F (Sep 11, 5:20 AM)37% (Sep 6, 5:20 PM)29.86 "Hg (Sep 6, 4:20 PM)
Average66 °F73%30.01 "Hg
* Reported Sep 3 2:20 PM — Sep 18 2:50 PM, Bensheim, Weather by CustomWeather, © 2014

Note: Actual official high and low records may vary slightly from our data, if they occured in-between our weather recording intervals... More about our weather records

Advertising

Bensheim weather history for previous 24 hours

 ConditionsComfort  
Time TempWeatherWind HumidityBarometerVisibility
2:50 PM
Sep 18
77 °FSunny.2 mph51%29.86 "Hg10 mi
2:20 PM77 °FSunny.3 mph51%29.86 "Hg10 mi
1:50 PM75 °FSunny.3 mph54%29.86 "Hg10 mi
1:20 PM75 °FSunny.3 mph57%29.86 "Hg10 mi
12:50 PM73 °FSunny.3 mph61%29.89 "Hg10 mi
12:20 PM72 °FSunny.3 mph69%29.89 "Hg10 mi
11:50 AM72 °FSunny.3 mph65%29.89 "Hg10 mi
11:20 AM70 °FSunny.2 mph69%29.89 "Hg10 mi
10:50 AM70 °FSunny.3 mph69%29.89 "Hg10 mi
10:20 AM68 °FSunny.3 mph78%29.89 "Hg10 mi
9:50 AM64 °FPassing clouds.5 mph83%29.89 "HgN/A
9:20 AM64 °FSunny.2 mph83%29.89 "Hg10 mi
8:50 AM64 °FSunny.2 mph83%29.89 "Hg10 mi
8:20 AM61 °FSunny.1 mph94%29.86 "Hg10 mi
7:50 AM61 °FClear.2 mph88%29.86 "Hg10 mi
7:20 AM61 °FClear.3 mph94%29.86 "Hg10 mi
6:50 AM61 °FClear.3 mph94%29.86 "Hg10 mi
5:50 AM63 °FOvercast.2 mph94%29.86 "HgN/A
5:20 AM63 °FLight rain. Partly cloudy.2 mph88%29.86 "HgN/A
10:20 PM
Sep 17
64 °FClear.2 mph73%29.86 "Hg10 mi
9:50 PM64 °FClear.2 mph78%29.86 "Hg10 mi
9:20 PM66 °FClear.2 mph73%29.86 "Hg10 mi
8:50 PM70 °FClear.3 mph60%29.86 "Hg10 mi
8:20 PM70 °FSunny.3 mph60%29.86 "Hg10 mi
7:50 PM72 °FSunny.3 mph57%29.86 "Hg10 mi
7:20 PM75 °FSunny.3 mph50%29.86 "Hg10 mi
6:50 PM75 °FPassing clouds.6 mph50%29.86 "HgN/A
6:20 PM77 °FSunny.7 mph44%29.86 "Hg10 mi
5:50 PM79 °FPassing clouds.7 mph39%29.86 "HgN/A
5:20 PM79 °FPassing clouds.5 mph42%29.86 "HgN/A
4:50 PM79 °FPassing clouds.6 mph39%29.86 "HgN/A
4:20 PM79 °FPassing clouds.5 mph39%29.86 "HgN/A
Weather by CustomWeather, © 2014

See weather overviewHow to use our weather pages